Content
SEND FEEDBACK

Daily
Averages
Monthly
Summary
United States of America

LAUGHLIN, NEVADA


Home > North America > United States > Nevada
Elevation: 1018 feet     Latitude: 35 10N     Longitude: 114 37W

WEATHER
 
SELECT A DAY
Number of Records: 181,330;   Date Range: 7/1/96 - 7/23/14
 
SHARE

PRINT THIS DATA

[ ← Previous Day ]
WEATHER ALMANAC - MARCH 23, 2013
[ Next Day → ]
[ °C ]   °F
Weather ElementAverageHighLow
Temperature60.9 °F66.2 °F (1:55 am)55.4 °F (6:15 am)
Dewpoint8.2 °F17.6 °F (12:35 am)-2.2 °F (1:55 am)
Humidity12.7 %18 % (12:35 am)6 % (1:55 am)
Barometer30.02 in30.13 in (10:55 am)29.82 in (12:35 am)
Wind Speed21.4 mph31.1 mph (8:55 am)
Wind Gust41.4 mph (5:15 am)
Weather ElementAverage
Visibility10 mi
Wind DirectionWSW (240.9 °)

Weather ElementTotal
Precipitation---
Heating Degree Days4.2 (Base 65)
Growing Degree Days10.8 (Base 50)
Averaged from 69 records on March 23, 2013
WEATHER CONDITIONS BREAKOUT
WIND DIRECTION BREAKOUT
WEATHER BY HOUR - MARCH 23, 2013
[ °C ]   °F
Local TimeTemperatureDewpointHumidityBarometerVisibilityWind DirectionWind SpeedGust SpeedPrecipitationEventsConditions
12:35 AM62.6 °F17.6 °F18 %29.82 in10.0 miNorth (350°)6.9 mphClear
12:55 AM60.8 °F8.6 °F13 %29.82 in10.0 miNorth (360°)9.2 mphClear
1:15 AM62.6 °F5.0 °F10 %29.83 in10.0 miNorth (360°)16.1 mphClear
1:35 AM64.4 °F6.8 °F10 %29.84 in10.0 miNorth (360°)18.4 mphClear
1:55 AM66.2 °F-2.2 °F6 %29.84 in10.0 miNorth (350°)25.3 mph32.2 mphClear
2:15 AM66.2 °F3.2 °F8 %29.85 in10.0 miNorth (360°)26.5 mph35.7 mphClear
2:35 AM64.4 °F5.0 °F10 %29.86 in10.0 miNNE (20°)28.8 mph33.4 mphClear
2:55 AM62.6 °F8.6 °F12 %29.86 in10.0 miNorth (360°)29.9 mph38.0 mphClear
3:15 AM62.6 °F10.4 °F13 %29.87 in10.0 miNorth (10°)28.8 mph34.5 mphClear
3:35 AM60.8 °F12.2 °F15 %29.89 in10.0 miNorth (360°)25.3 mph35.7 mphClear
3:55 AM59.0 °F14.0 °F17 %29.89 in10.0 miNorth (360°)26.5 mph33.4 mphClear
4:35 AM59.0 °F14.0 °F17 %29.92 in10.0 miNorth (360°)26.5 mph35.7 mphClear
4:55 AM57.2 °F14.0 °F18 %29.93 in10.0 miNorth (360°)29.9 mph40.3 mphClear
5:15 AM57.2 °F14.0 °F18 %29.95 in10.0 miNorth (360°)27.6 mph41.4 mphClear
5:55 AM57.2 °F12.2 °F17 %29.98 in10.0 miNorth (10°)23.0 mph31.1 mphClear
6:15 AM55.4 °F10.4 °F17 %30.00 in10.0 miNorth (10°)24.2 mph31.1 mphClear
6:35 AM55.4 °F10.4 °F17 %30.02 in10.0 miNNE (20°)23.0 mph34.5 mphClear
6:55 AM55.4 °F10.4 °F17 %30.04 in10.0 miNNE (20°)21.9 mphClear
7:15 AM55.4 °F8.6 °F15 %30.04 in10.0 miNorth (10°)24.2 mph31.1 mphClear
7:35 AM55.4 °F8.6 °F15 %30.05 in10.0 miNorth (10°)25.3 mph33.4 mphClear
7:55 AM55.4 °F6.8 °F14 %30.07 in10.0 miNorth (10°)21.9 mph32.2 mphClear
8:15 AM55.4 °F6.8 °F14 %30.08 in10.0 miNorth (10°)27.6 mph33.4 mphClear
8:35 AM57.2 °F8.6 °F14 %30.09 in10.0 miNorth (360°)24.2 mph29.9 mphClear
8:55 AM57.2 °F8.6 °F14 %30.09 in10.0 miNorth (350°)31.1 mph36.8 mphClear
9:15 AM57.2 °F10.4 °F16 %30.11 in10.0 miNorth (350°)31.1 mph40.3 mphClear
9:35 AM57.2 °F10.4 °F16 %30.11 in10.0 miNNW (340°)26.5 mph35.7 mphClear
9:55 AM59.0 °F14.0 °F17 %30.11 in10.0 miNNW (340°)28.8 mph39.1 mphClear
10:15 AM59.0 °F14.0 °F17 %30.11 in10.0 miNNW (340°)29.9 mph38.0 mphClear
10:35 AM59.0 °F10.4 °F15 %30.11 in10.0 miNNW (340°)28.8 mph36.8 mphClear
10:55 AM60.8 °F10.4 °F14 %30.13 in10.0 miNNW (340°)25.3 mph35.7 mphClear
11:15 AM60.8 °F10.4 °F14 %30.13 in10.0 miNNW (340°)26.5 mph36.8 mphClear
11:35 AM60.8 °F8.6 °F13 %30.12 in10.0 miNNW (340°)28.8 mph32.2 mphClear
11:55 AM62.6 °F8.6 °F12 %30.12 in10.0 miNNW (340°)25.3 mph36.8 mphClear
12:15 PM62.6 °F8.6 °F12 %30.10 in10.0 miNNW (340°)28.8 mph35.7 mphClear
12:35 PM62.6 °F8.6 °F12 %30.08 in10.0 miNNW (340°)27.6 mph36.8 mphClear
12:55 PM62.6 °F8.6 °F12 %30.08 in10.0 miNNW (340°)29.9 mph41.4 mphClear
1:15 PM62.6 °F8.6 °F12 %30.08 in10.0 miNNW (340°)26.5 mph36.8 mphClear
1:35 PM62.6 °F8.6 °F12 %30.07 in10.0 miNNW (340°)28.8 mph38.0 mphClear
1:55 PM62.6 °F6.8 °F11 %30.08 in10.0 miNNW (330°)20.7 mph31.1 mphClear
2:15 PM64.4 °F8.6 °F11 %30.07 in10.0 miNNW (340°)21.9 mph31.1 mphClear
2:35 PM64.4 °F8.6 °F11 %30.06 in10.0 miNNW (330°)21.9 mph31.1 mphClear
2:55 PM64.4 °F10.4 °F12 %30.06 in10.0 miNNW (340°)23.0 mph32.2 mphClear
3:15 PM64.4 °F10.4 °F12 %30.06 in10.0 miNNW (340°)20.7 mph27.6 mphClear
3:35 PM64.4 °F8.6 °F11 %30.04 in10.0 miNorth (350°)24.2 mph28.8 mphClear
3:55 PM64.4 °F8.6 °F11 %30.04 in10.0 miNNW (340°)18.4 mph24.2 mphClear
4:15 PM64.4 °F6.8 °F10 %30.03 in10.0 miNNW (340°)20.7 mph27.6 mphClear
4:35 PM64.4 °F6.8 °F10 %30.02 in10.0 miNNW (340°)21.9 mph28.8 mphClear
4:55 PM64.4 °F6.8 °F10 %30.02 in10.0 miNNW (340°)19.6 mphClear
5:15 PM66.2 °F5.0 °F9 %30.01 in10.0 miNNW (340°)16.1 mph21.9 mphClear
5:35 PM66.2 °F5.0 °F9 %30.01 in10.0 miNNW (340°)17.3 mphClear
5:55 PM64.4 °F6.8 °F10 %30.00 in10.0 miNNW (340°)19.6 mphClear
6:15 PM64.4 °F5.0 °F10 %30.01 in10.0 miNorth (350°)15.0 mphClear
6:35 PM64.4 °F6.8 °F10 %30.01 in10.0 miNNW (340°)15.0 mphClear
6:55 PM62.6 °F6.8 °F11 %30.01 in10.0 miNorth (350°)13.8 mphClear
7:15 PM62.6 °F8.6 °F12 %30.01 in10.0 miNorth (350°)15.0 mphClear
7:35 PM62.6 °F6.8 °F11 %30.02 in10.0 miNorth (360°)16.1 mphClear
7:55 PM62.6 °F6.8 °F11 %30.02 in10.0 miNorth (10°)15.0 mphClear
8:15 PM62.6 °F8.6 °F12 %30.02 in10.0 miNorth (10°)16.1 mph21.9 mphClear
8:35 PM62.6 °F6.8 °F11 %30.02 in10.0 miNorth (360°)16.1 mph21.9 mphClear
8:55 PM60.8 °F5.0 °F11 %30.03 in10.0 miNorth (10°)15.0 mphClear
9:15 PM60.8 °F5.0 °F11 %30.03 in10.0 miNorth (10°)12.7 mphClear
9:35 PM59.0 °F5.0 °F12 %30.03 in10.0 miNorth (10°)16.1 mphClear
9:55 PM59.0 °F5.0 °F12 %30.04 in10.0 miNorth (10°)12.7 mphClear
10:15 PM59.0 °F5.0 °F12 %30.05 in10.0 miNNE (20°)10.4 mphClear
10:35 PM59.0 °F5.0 °F12 %30.05 in10.0 miNNE (30°)10.4 mphClear
10:55 PM57.2 °F6.8 °F13 %30.05 in10.0 miNNE (20°)11.5 mphClear
11:15 PM57.2 °F3.2 °F11 %30.05 in10.0 miNNE (30°)12.7 mphClear
11:35 PM57.2 °F3.2 °F11 %30.05 in10.0 miNNE (20°)12.7 mphClear
11:55 PM57.2 °F1.4 °F10 %30.05 in10.0 miNorth (10°)9.2 mphClear
Hourly data recorded from KIFP, located miles away from Laughlin, Nevada







STORIES FROM OUR PARTNERS